| time (UTC) | temp F | wind direction | speed knots | gust knots | rain 1hr in | rain 24hr in | rain mn in | humidity % | barometer mb |
| 20260506011238 | 48 | 355 | 0.0 | 0.0 | 0.00 | 0.00 | 0.00 | 82 | 1010.1 |
| 20260506010239 | 49 | 355 | 0.0 | 0.9 | 0.00 | 0.00 | 0.00 | 82 | 1010.1 |
| 20260506005234 | 49 | 355 | 0.0 | 0.9 | 0.00 | 0.00 | 0.00 | 82 | 1010.1 |
| 20260506004252 | 49 | 355 | 0.0 | 0.9 | 0.00 | 0.00 | 0.00 | 82 | 1010.1 |
| 20260506003248 | 49 | 355 | 0.0 | 0.0 | 0.00 | 0.00 | 0.00 | 81 | 1010.2 |
| 20260506002241 | 49 | 355 | 0.0 | 1.7 | 0.00 | 0.00 | 0.00 | 81 | 1010.2 |
| 20260506001248 | 49 | 355 | 0.0 | 0.9 | 0.00 | 0.00 | 0.00 | 81 | 1010.2 |
| 20260506000240 | 49 | 355 | 0.0 | 1.7 | 0.00 | 0.00 | 0.00 | 81 | 1010.2 |
| 20260505235237 | 49 | 355 | 0.9 | 2.6 | 0.00 | 0.00 | 0.00 | 81 | 1010.2 |
| 20260505234249 | 49 | 345 | 0.0 | 2.6 | 0.00 | 0.00 | 0.00 | 80 | 1010.4 |
| 20260505233240 | 49 | 345 | 0.0 | 1.7 | 0.00 | 0.00 | 0.00 | 80 | 1010.4 |
| 20260505232251 | 49 | 345 | 0.9 | 2.6 | 0.00 | 0.00 | 0.00 | 80 | 1010.4 |
| 20260505231247 | 50 | 345 | 0.9 | 2.6 | 0.00 | 0.00 | 0.00 | 80 | 1010.5 |
| 20260505230236 | 50 | 344 | 0.9 | 2.6 | 0.00 | 0.00 | 0.00 | 79 | 1010.5 |
| 20260505225305 | 50 | 343 | 0.9 | 2.6 | 0.00 | 0.00 | 0.00 | 79 | 1010.5 |
| 20260505224243 | 50 | 342 | 1.7 | 3.5 | 0.00 | 0.00 | 0.00 | 79 | 1010.5 |
| 20260505223247 | 50 | 342 | 0.0 | 3.5 | 0.00 | 0.00 | 0.00 | 78 | 1010.6 |
| 20260505222243 | 50 | 341 | 1.7 | 3.5 | 0.00 | 0.00 | 0.00 | 78 | 1010.6 |
| 20260505221243 | 50 | 5 | 0.0 | 2.6 | 0.00 | 0.00 | 0.00 | 78 | 1010.6 |
| 20260505220246 | 50 | 5 | 1.7 | 4.3 | 0.00 | 0.00 | 0.00 | 78 | 1010.6 |
| 20260505215240 | 51 | 9 | 0.9 | 4.3 | 0.00 | 0.00 | 0.00 | 77 | 1010.6 |
| 20260505214239 | 51 | 5 | 0.9 | 3.5 | 0.00 | 0.00 | 0.00 | 77 | 1010.6 |
| 20260505213240 | 51 | 5 | 1.7 | 4.3 | 0.00 | 0.00 | 0.00 | 76 | 1010.6 |
| 20260505212236 | 51 | 355 | 0.0 | 5.2 | 0.00 | 0.00 | 0.00 | 76 | 1010.6 |
| 20260505211233 | 51 | 19 | 2.6 | 6.1 | 0.00 | 0.00 | 0.00 | 75 | 1010.6 |
| 20260505210238 | 52 | 10 | 1.7 | 5.2 | 0.00 | 0.00 | 0.00 | 75 | 1010.6 |
| 20260505205237 | 52 | 346 | 2.6 | 5.2 | 0.00 | 0.00 | 0.00 | 74 | 1010.6 |
| 20260505204240 | 52 | 15 | 0.9 | 6.1 | 0.00 | 0.00 | 0.00 | 73 | 1010.6 |
| 20260505203234 | 52 | 339 | 1.7 | 6.1 | 0.00 | 0.00 | 0.00 | 72 | 1010.5 |
| 20260505202241 | 53 | 342 | 1.7 | 7.0 | 0.00 | 0.00 | 0.00 | 71 | 1010.5 |
| 20260505201237 | 53 | 351 | 2.6 | 7.8 | 0.00 | 0.00 | 0.00 | 70 | 1010.4 |
| 20260505200245 | 53 | 24 | 3.5 | 6.1 | 0.00 | 0.00 | 0.00 | 69 | 1010.2 |
| 20260505195259 | 54 | 355 | 2.6 | 4.3 | 0.00 | 0.00 | 0.00 | 68 | 1010.2 |
| 20260505194250 | 54 | 350 | 0.9 | 9.6 | 0.00 | 0.00 | 0.00 | 66 | 1010.1 |
| 20260505193238 | 54 | 336 | 3.5 | 8.7 | 0.00 | 0.00 | 0.00 | 65 | 1010.0 |
| 20260505192231 | 55 | 340 | 1.7 | 6.1 | 0.00 | 0.00 | 0.00 | 64 | 1010.0 |
| 20260505191307 | 55 | 338 | 1.7 | 6.1 | 0.00 | 0.00 | 0.00 | 64 | 1009.9 |
| 20260505190243 | 55 | 22 | 4.3 | 10.4 | 0.00 | 0.00 | 0.00 | 63 | 1009.7 |
| 20260505185234 | 56 | 333 | 5.2 | 7.8 | 0.00 | 0.00 | 0.00 | 63 | 1009.7 |
| 20260505184245 | 56 | 325 | 1.7 | 10.4 | 0.00 | 0.00 | 0.00 | 62 | 1009.8 |
| 20260505183238 | 57 | 15 | 4.3 | 10.4 | 0.00 | 0.00 | 0.00 | 63 | 1009.6 |
| 20260505182252 | 58 | 42 | 1.7 | 8.7 | 0.00 | 0.00 | 0.00 | 63 | 1009.6 |
| 20260505181243 | 58 | 355 | 0.9 | 2.6 | 0.00 | 0.00 | 0.00 | 63 | 1009.6 |
| 20260505180234 | 59 | 16 | 2.6 | 7.8 | 0.00 | 0.00 | 0.00 | 62 | 1009.5 |
| 20260505175235 | 59 | 347 | 1.7 | 8.7 | 0.00 | 0.00 | 0.00 | 61 | 1009.5 |
| 20260505174236 | 60 | 331 | 2.6 | 5.2 | 0.00 | 0.00 | 0.00 | 62 | 1009.5 |
| 20260505173248 | 60 | 340 | 1.7 | 8.7 | 0.00 | 0.00 | 0.00 | 60 | 1009.5 |
| 20260505172305 | 60 | 12 | 2.6 | 6.1 | 0.00 | 0.00 | 0.00 | 60 | 1009.5 |
| 20260505171243 | 60 | 360 | 3.5 | 7.0 | 0.00 | 0.00 | 0.00 | 59 | 1009.5 |
| 20260505170257 | 61 | 341 | 3.5 | 6.1 | 0.00 | 0.00 | 0.00 | 58 | 1009.6 |
| 20260505165235 | 62 | 360 | 2.6 | 5.2 | 0.00 | 0.00 | 0.00 | 58 | 1009.6 |
| 20260505164311 | 62 | 309 | 0.0 | 3.5 | 0.00 | 0.00 | 0.00 | 60 | 1009.6 |
| 20260505163242 | 62 | 11 | 0.0 | 3.5 | 0.00 | 0.00 | 0.00 | 59 | 1009.7 |
| 20260505162233 | 63 | 355 | 1.7 | 4.3 | 0.00 | 0.00 | 0.00 | 58 | 1009.7 |
| 20260505161244 | 62 | 27 | 2.6 | 6.1 | 0.00 | 0.00 | 0.00 | 57 | 1009.6 |
| 20260505160236 | 62 | 355 | 0.9 | 3.5 | 0.00 | 0.00 | 0.00 | 61 | 1009.7 |
| 20260505153253 | 62 | 336 | 0.9 | 3.5 | 0.00 | 0.00 | 0.00 | 60 | 1009.9 |
| 20260505152240 | 62 | 360 | 0.0 | 3.5 | 0.00 | 0.00 | 0.00 | 61 | 1009.9 |
| 20260505151236 | 61 | 9 | 0.9 | 6.1 | 0.00 | 0.00 | 0.00 | 60 | 1010.1 |
| 20260505150250 | 61 | 17 | 2.6 | 5.2 | 0.00 | 0.00 | 0.00 | 61 | 1010.1 |
| 20260505140243 | 60 | 24 | 0.0 | 1.7 | 0.00 | 0.00 | 0.00 | 71 | 1010.5 |
| 20260505130246 | 60 | 17 | 2.6 | 5.2 | 0.00 | 0.00 | 0.00 | 69 | 1010.6 |
| 20260505124236 | 61 | 323 | 1.7 | 5.2 | 0.00 | 0.00 | 0.00 | 70 | 1010.6 |
| 20260505123244 | 61 | 25 | 2.6 | 4.3 | 0.00 | 0.00 | 0.00 | 69 | 1010.6 |
| 20260505122238 | 61 | 33 | 2.6 | 4.3 | 0.00 | 0.00 | 0.00 | 70 | 1010.6 |
| 20260505121239 | 61 | 355 | 1.7 | 6.1 | 0.00 | 0.00 | 0.00 | 70 | 1010.6 |
| 20260505120306 | 60 | 28 | 0.9 | 5.2 | 0.00 | 0.00 | 0.00 | 71 | 1010.6 |
| 20260505115249 | 60 | 30 | 0.0 | 1.7 | 0.00 | 0.00 | 0.00 | 72 | 1010.6 |
| 20260505114246 | 60 | 30 | 0.0 | 0.9 | 0.00 | 0.00 | 0.00 | 71 | 1010.7 |
| 20260505113238 | 60 | 29 | 0.0 | 3.5 | 0.00 | 0.00 | 0.00 | 71 | 1010.8 |
| 20260505112248 | 60 | 31 | 3.5 | 4.3 | 0.00 | 0.00 | 0.00 | 70 | 1010.8 |
| 20260505111242 | 61 | 11 | 2.6 | 3.5 | 0.00 | 0.00 | 0.00 | 69 | 1010.8 |
| 20260505110256 | 61 | 12 | 3.5 | 6.1 | 0.00 | 0.00 | 0.00 | 70 | 1010.8 |
| 20260505101242 | 58 | 313 | 1.7 | 4.3 | 0.00 | 0.00 | 0.00 | 73 | 1010.9 |
| 20260505100237 | 58 | 51 | 2.6 | 6.1 | 0.00 | 0.00 | 0.00 | 72 | 1010.9 |
| 20260505095241 | 59 | 57 | 0.9 | 5.2 | 0.00 | 0.00 | 0.00 | 72 | 1010.9 |
| 20260505094235 | 59 | 56 | 2.6 | 5.2 | 0.00 | 0.00 | 0.00 | 71 | 1010.9 |
| 20260505093251 | 60 | 59 | 4.3 | 7.8 | 0.00 | 0.00 | 0.00 | 71 | 1010.8 |
| 20260505092246 | 59 | 42 | 1.7 | 7.8 | 0.00 | 0.00 | 0.00 | 73 | 1010.8 |
| 20260505091238 | 59 | 55 | 4.3 | 9.6 | 0.00 | 0.00 | 0.00 | 73 | 1010.8 |
| 20260505090304 | 59 | 68 | 5.2 | 8.7 | 0.00 | 0.00 | 0.00 | 74 | 1010.8 |
| 20260505085300 | 58 | 52 | 1.7 | 6.1 | 0.00 | 0.00 | 0.00 | 76 | 1010.8 |
| 20260505084235 | 57 | 43 | 0.9 | 7.0 | 0.00 | 0.00 | 0.00 | 78 | 1010.8 |
| 20260505083245 | 56 | 52 | 3.5 | 5.2 | 0.00 | 0.00 | 0.00 | 79 | 1010.7 |
| 20260505082233 | 55 | 52 | 1.7 | 6.1 | 0.00 | 0.00 | 0.00 | 80 | 1010.6 |
| 20260505081305 | 55 | 52 | 3.5 | 4.3 | 0.00 | 0.00 | 0.00 | 81 | 1010.7 |
| 20260505080303 | 54 | 52 | 2.6 | 6.1 | 0.00 | 0.00 | 0.00 | 81 | 1010.6 |
| 20260505075246 | 54 | 52 | 2.6 | 5.2 | 0.00 | 0.00 | 0.00 | 81 | 1010.6 |
| 20260505074258 | 54 | 65 | 4.3 | 7.8 | 0.00 | 0.00 | 0.00 | 82 | 1010.6 |
| 20260505073237 | 53 | 106 | 2.6 | 5.2 | 0.00 | 0.00 | 0.00 | 85 | 1010.6 |
| 20260505072234 | 53 | 112 | 2.6 | 4.3 | 0.00 | 0.00 | 0.00 | 86 | 1010.6 |
| 20260505071243 | 52 | 112 | 1.7 | 4.3 | 0.00 | 0.00 | 0.00 | 87 | 1010.7 |
| 20260505070251 | 52 | 181 | 1.7 | 2.6 | 0.00 | 0.00 | 0.00 | 88 | 1010.7 |
| 20260505065248 | 52 | 182 | 0.9 | 1.7 | 0.00 | 0.00 | 0.00 | 89 | 1010.7 |
| 20260505064244 | 51 | 182 | 0.0 | 1.7 | 0.00 | 0.00 | 0.00 | 89 | 1010.6 |
| 20260505063242 | 51 | 182 | 0.9 | 2.6 | 0.00 | 0.00 | 0.00 | 90 | 1010.6 |
| 20260505062234 | 50 | 182 | 0.0 | 0.0 | 0.00 | 0.00 | 0.00 | 89 | 1010.6 |
| 20260505061245 | 50 | 182 | 0.0 | 0.0 | 0.00 | 0.00 | 0.00 | 89 | 1010.6 |
| 20260505060233 | 49 | 182 | 0.0 | 0.0 | 0.00 | 0.00 | 0.00 | 88 | 1010.6 |
| 20260505055312 | 49 | 182 | 0.0 | 0.0 | 0.00 | 0.00 | 0.00 | 88 | 1010.6 |
| 20260505054250 | 49 | 182 | 0.0 | 0.0 | 0.00 | 0.00 | 0.00 | 88 | 1010.6 |
| 20260505053242 | 49 | 182 | 0.0 | 0.0 | 0.00 | 0.00 | 0.00 | 88 | 1010.5 |
| 20260505052234 | 49 | 182 | 0.0 | 0.0 | 0.00 | 0.00 | 0.00 | 88 | 1010.5 |
| 20260505051243 | 49 | 182 | 0.9 | 3.5 | 0.00 | 0.00 | 0.00 | 87 | 1010.4 |
| 20260505050235 | 49 | 182 | 0.0 | 0.9 | 0.00 | 0.00 | 0.00 | 87 | 1010.5 |
| 20260505041234 | 51 | 182 | 0.9 | 2.6 | 0.00 | 0.00 | 0.00 | 88 | 1010.3 |
| 20260505040248 | 51 | 182 | 0.0 | 0.9 | 0.00 | 0.00 | 0.00 | 88 | 1010.2 |
| 20260505035309 | 51 | 182 | 0.0 | 3.5 | 0.00 | 0.00 | 0.00 | 88 | 1010.2 |
| 20260505034247 | 51 | 187 | 0.0 | 2.6 | 0.00 | 0.00 | 0.00 | 88 | 1010.3 |
| 20260505033237 | 51 | 187 | 1.7 | 3.5 | 0.00 | 0.00 | 0.00 | 88 | 1010.2 |
| 20260505032254 | 51 | 187 | 1.7 | 3.5 | 0.00 | 0.00 | 0.00 | 88 | 1010.2 |
| 20260505031306 | 51 | 190 | 1.7 | 3.5 | 0.00 | 0.00 | 0.00 | 88 | 1010.3 |
| 20260505030242 | 51 | 210 | 0.9 | 2.6 | 0.00 | 0.00 | 0.00 | 87 | 1010.3 |
| 20260505025249 | 51 | 210 | 0.9 | 2.6 | 0.00 | 0.00 | 0.00 | 87 | 1010.3 |
| 20260505024246 | 51 | 210 | 0.9 | 2.6 | 0.00 | 0.00 | 0.00 | 88 | 1010.4 |
| 20260505023241 | 51 | 210 | 0.9 | 2.6 | 0.00 | 0.00 | 0.00 | 88 | 1010.5 |
| 20260505022235 | 52 | 210 | 0.0 | 2.6 | 0.00 | 0.00 | 0.00 | 87 | 1010.5 |
| 20260505021237 | 52 | 210 | 1.7 | 3.5 | 0.00 | 0.00 | 0.00 | 87 | 1010.5 |
| 20260505020236 | 52 | 210 | 0.9 | 2.6 | 0.00 | 0.00 | 0.00 | 87 | 1010.6 |
| 20260505015247 | 52 | 211 | 0.9 | 1.7 | 0.00 | 0.00 | 0.00 | 88 | 1010.6 |
| 20260505014245 | 52 | 211 | 0.0 | 2.6 | 0.00 | 0.00 | 0.00 | 88 | 1010.6 |
| 20260505013306 | 52 | 211 | 0.9 | 2.6 | 0.00 | 0.00 | 0.00 | 88 | 1010.8 |
| 20260505012241 | 52 | 211 | 0.9 | 3.5 | 0.00 | 0.00 | 0.00 | 88 | 1010.8 |